Wind_Speed
17 19 18 17 15 14 13 12 9 6 3 3 2 3 2 3 4 5 5 6 6 7 8 9 10 12 13 13 14 14 14 15 15 15 16 16 16 16 17 17 17 18 19 21 22 23 25 26 27 29 30 29 28 28 29 31 31 32 33 34 35 35 35
19 18 17 16 15 14 13 11 9 5 3 3 3 2 2 3 4 6 7 7 8 9 10 11 12 13 13 14 14 14 15 15 15 16 16 16 16 16 16 17 18 19 20 22 23 24 24 24 24 25 27 28 29 29 30 32 33 33 33 33 34 34 34
18 17 16 15 14 14 12 11 9 6 4 4 3 3 4 5 6 8 9 10 11 12 12 13 13 14 14 14 15 15 15 16 16 16 16 15 15 15 16 17 18 20 22 23 23 24 23 23 22 22 23 25 28 29 30 31 32 33 33 33 33 34 34
17 16 15 14 14 13 12 12 10 7 4 5 5 6 7 8 9 10 11 12 13 14 14 14 14 14 14 15 15 15 16 16 16 15 15 15 15 15 17 18 20 21 22 23 23 22 22 21 20 21 22 24 26 28 29 29 30 31 31 32 32 33 33
16 15 14 14 13 12 12 12 11 8 7 7 7 8 10 10 11 12 13 14 15 14 14 14 14 14 14 15 15 15 16 15 15 14 14 14 15 16 17 19 20 21 22 22 22 21 20 20 20 21 22 24 25 26 28 29 29 29 30 30 30 31 33
15 14 14 13 12 12 11 10 10 11 11 11 10 11 12 12 13 14 15 15 15 15 14 14 14 14 14 15 15 15 14 14 13 13 13 14 15 17 18 20 21 22 22 22 21 20 20 20 21 22 22 23 23 24 26 27 28 28 29 30 30 30 32
15 14 14 13 12 12 11 10 11 13 13 14 14 14 14 14 15 15 16 16 15 15 14 13 14 14 14 14 13 13 12 12 12 12 13 14 16 18 19 20 21 21 21 20 20 20 20 21 22 22 21 21 22 22 24 26 27 27 29 30 31 31 32
15 14 13 13 12 12 12 13 13 14 14 15 15 16 16 16 16 16 16 16 15 14 13 14 14 14 13 12 12 11 11 11 11 12 13 15 17 18 19 20 20 20 19 19 20 20 22 23 23 22 22 21 20 20 21 24 26 27 29 30 31 32 34
15 14 13 13 12 12 13 14 14 14 14 15 15 16 17 17 16 16 16 15 14 13 14 14 14 13 12 11 11 11 11 11 11 13 14 16 18 19 19 19 18 18 18 19 20 21 22 22 22 23 23 23 23 21 21 23 26 27 29 31 31 31 33
16 14 13 12 12 12 13 14 14 14 14 14 16 17 17 16 16 16 15 14 13 13 13 13 12 11 11 11 11 10 10 11 12 14 16 17 18 18 18 18 17 18 19 20 21 22 22 22 23 23 24 25 26 26 25 26 27 28 29 31 33 33 33
16 14 13 12 12 13 13 13 13 13 13 14 15 15 15 15 15 14 13 13 13 13 12 11 11 11 11 10 10 10 11 12 13 15 17 17 18 17 17 17 17 18 19 20 21 21 22 23 24 25 26 26 27 28 29 28 29 31 31 32 34 35 35
16 14 13 12 12 12 13 13 13 13 13 13 13 13 13 13 13 13 13 13 12 11 10 10 10 10 10 10 10 10 11 12 14 16 17 17 17 17 17 17 18 19 20 20 20 21 22 23 24 26 27 28 28 29 30 30 29 31 33 34 34 36 37
16 15 13 12 12 12 12 12 12 12 12 12 11 11 12 12 12 13 13 12 10 10 10 10 10 10 10 10 10 10 12 14 15 17 17 17 17 17 17 17 18 19 19 20 20 21 22 24 25 26 27 28 29 30 30 31 31 30 32 34 35 36 38
17 15 14 13 13 12 11 11 11 11 11 11 11 11 11 12 13 13 11 10 9 10 10 10 10 10 10 10 10 11 12 15 16 16 17 17 16 16 17 17 18 19 19 20 20 21 23 24 25 26 27 28 30 31 31 32 32 32 32 33 35 37 39
17 16 15 14 13 12 10 10 10 10 10 10 10 11 12 13 13 11 9 9 9 10 10 10 10 10 10 9 10 12 14 15 16 16 16 16 15 16 16 17 17 18 19 19 20 21 22 23 24 25 26 28 29 30 31 32 32 33 33 34 36 38 40
17 16 15 15 14 12 10 10 10 10 10 10 10 12 13 13 11 9 9 9 9 9 10 10 10 10 9 9 10 12 14 14 15 15 15 15 15 15 16 16 17 17 18 19 20 21 22 22 23 24 25 27 27 28 29 31 32 33 35 36 37 39 41
17 16 16 15 14 12 11 11 11 11 11 11 11 13 14 12 10 9 9 9 9 9 10 10 10 10 9 9 11 13 13 14 14 14 14 14 14 14 15 16 16 17 18 19 20 21 21 22 23 24 24 25 26 27 28 29 31 33 35 36 37 39 41
17 17 17 16 15 13 12 12 12 12 12 12 13 14 14 11 10 9 9 9 9 10 10 10 10 10 9 10 11 12 13 13 13 13 13 13 13 14 15 15 16 17 17 19 20 20 21 21 22 23 23 24 25 26 27 28 30 32 34 36 37 39 41
18 18 18 17 16 15 14 12 12 13 13 13 14 14 13 11 10 10 10 10 10 10 11 10 10 9 10 10 11 11 12 12 12 12 12 12 13 13 14 14 15 16 17 18 19 20 20 21 21 21 22 23 24 25 26 28 30 32 34 36 37 39 42
20 20 19 18 17 16 14 13 13 14 13 14 15 15 13 11 11 11 10 11 11 11 11 10 9 9 10 10 10 11 11 11 11 11 11 11 12 12 13 14 14 15 16 17 17 18 19 20 20 21 21 22 24 25 27 28 30 33 35 36 38 40 43
21 21 21 20 19 17 15 14 14 14 14 15 15 14 13 12 11 11 11 11 12 12 12 10 9 9 10 10 10 10 10 10 10 10 10 10 11 11 12 13 14 15 16 16 17 17 18 19 19 20 21 22 24 25 27 29 32 34 36 38 39 42 44
22 22 22 21 20 18 16 15 15 15 15 15 15 14 13 12 12 12 12 12 13 13 11 10 9 9 10 9 9 10 9 9 9 9 9 9 10 10 11 12 13 14 15 16 17 18 18 18 19 20 21 22 24 26 28 31 33 35 37 39 41 43 45
25 24 23 22 20 18 17 16 16 16 16 15 14 14 13 13 13 13 13 13 14 13 11 10 10 10 10 9 9 9 9 9 8 8 8 8 8 9 10 11 12 13 14 15 16 17 18 19 20 21 23 24 26 28 30 32 34 36 38 40 43 45 47
27 26 24 22 20 19 18 18 18 18 17 15 15 14 14 14 14 14 14 14 14 13 11 10 10 10 9 9 8 8 8 8 7 7 7 7 7 8 9 10 11 12 13 14 15 16 17 19 20 22 24 26 27 29 31 33 35 37 38 40 43 45 48
29 27 25 22 21 20 20 19 19 18 17 16 16 15 15 16 16 16 16 15 14 13 12 11 11 10 9 8 8 8 8 7 7 6 6 6 6 7 8 9 10 11 12 13 14 16 17 18 20 22 24 26 28 30 32 34 36 37 39 40 43 45 48
29 28 26 24 22 22 21 20 20 18 17 17 17 17 17 17 17 17 16 16 15 14 12 12 11 10 9 8 8 8 7 7 6 5 5 5 6 6 7 8 9 10 11 12 13 15 16 18 19 21 23 25 27 28 30 32 34 36 38 40 42 44 47
30 29 27 25 24 23 22 21 19 18 17 18 18 18 18 18 18 18 17 16 16 14 13 12 12 11 9 8 8 8 7 7 6 5 4 4 5 5 6 7 8 9 10 11 12 14 15 17 18 20 22 24 26 27 28 30 31 34 36 38 40 43 45
31 30 28 26 25 23 22 20 18 16 17 18 19 20 19 19 19 19 18 17 16 15 14 13 12 11 10 9 8 8 8 7 6 4 3 3 4 5 5 6 7 9 9 10 12 13 14 16 18 19 21 23 25 26 28 29 31 33 35 37 39 41 43
32 32 29 27 25 24 22 19 17 16 17 18 20 21 20 20 20 19 18 18 16 15 14 14 13 11 10 9 9 9 8 7 6 4 3 4 4 5 5 6 7 8 9 10 11 12 14 16 17 19 20 21 23 25 27 29 30 32 34 35 37 39 40
33 31 28 26 26 25 23 21 18 18 18 18 20 21 22 22 21 20 19 18 17 16 15 14 13 11 10 10 10 9 9 8 6 5 4 4 5 5 5 6 8 9 9 10 11 12 14 15 17 18 19 20 21 22 24 25 27 29 31 33 35 36 37
31 28 26 27 28 27 25 24 21 19 19 20 21 22 23 23 22 21 20 18 17 16 15 15 13 12 11 10 10 10 9 8 7 5 5 5 5 5 6 7 8 9 10 10 11 12 14 15 16 17 19 20 21 22 23 24 26 27 28 30 31 33 35
29 27 28 28 29 29 28 26 23 21 20 21 22 23 23 23 22 21 20 19 18 17 16 15 14 12 11 11 11 11 10 9 7 6 6 6 6 6 6 7 8 9 10 11 11 12 14 15 16 18 19 20 22 23 25 27 28 29 30 30 32 33 35
27 26 30 29 28 29 31 29 25 21 21 21 22 23 23 23 23 22 21 21 19 18 17 16 15 13 12 11 12 11 10 10 8 7 7 7 7 7 7 7 8 9 10 11 11 12 14 15 17 18 19 21 22 24 26 28 29 31 31 32 33 34 35
27 24 29 30 27 26 29 30 27 22 21 22 23 23 23 23 23 23 22 21 20 18 18 17 15 14 13 12 12 12 11 10 9 8 8 8 7 8 7 8 8 8 10 11 12 13 14 16 17 19 20 22 24 25 27 28 29 31 31 32 33 34 36
24 21 25 29 27 24 25 28 27 23 21 23 23 23 23 23 23 23 23 22 20 19 19 18 16 15 14 13 13 13 12 11 10 9 9 8 8 8 8 8 8 8 9 11 12 13 15 16 18 19 21 22 24 25 27 28 30 31 32 33 34 35 36
23 23 26 28 27 25 24 27 28 25 22 23 24 23 23 23 24 24 23 22 21 20 20 19 17 16 15 15 14 13 13 12 11 11 10 9 8 9 9 9 8 8 9 11 12 13 14 16 18 19 20 22 24 25 26 28 30 31 32 33 34 35 37
23 22 23 23 24 25 25 27 31 28 23 23 24 23 23 24 24 24 24 23 21 21 21 20 18 17 16 16 15 14 13 12 12 11 11 10 9 9 9 9 8 9 10 11 12 12 14 16 17 19 20 22 24 25 27 28 30 31 32 33 34 35 37
Wind_Direction
198 196 199 199 195 197 202 207 210 214 234 256 272 288 306 310 306 303 302 309 313 314 313 311 311 310 310 310 309 309 308 307 306 304 302 301 301 302 304 307 309 311 314 317 321 323 325 325 323 321 320 319 319 320 320 321 322 322 322 321 321 321 321
193 193 198 196 193 194 198 204 207 210 234 251 256 266 289 301 302 301 302 305 307 307 308 308 308 308 308 309 310 310 309 307 306 304 302 301 302 304 307 309 311 315 319 322 324 325 324 323 321 319 318 318 319 320 322 323 323 323 323 323 323 323 324
187 192 197 195 195 197 201 206 209 213 235 257 264 272 282 290 296 300 301 303 304 305 306 307 308 308 309 311 312 312 310 308 306 304 304 305 308 311 313 316 319 323 325 325 324 323 321 319 318 319 319 320 321 322 323 324 323 323 324 325 326 326 326
185 194 198 198 200 204 209 214 218 226 250 273 281 284 288 291 294 296 299 301 302 303 305 306 308 309 312 313 313 312 310 308 307 307 309 311 314 317 320 323 325 325 324 322 321 319 319 318 320 322 325 326 326 325 325 326 326 326 326 327 328 328 328
192 199 200 202 203 209 218 221 228 239 258 275 285 293 295 293 294 296 298 299 300 302 305 307 309 312 313 314 313 311 309 308 309 310 313 316 319 322 324 325 324 323 322 321 320 319 320 323 326 329 330 330 329 328 327 328 329 329 329 330 331 330 329
200 202 201 205 206 214 222 225 233 245 257 267 279 294 299 296 295 296 296 297 299 302 305 308 311 313 313 313 311 309 308 308 310 313 317 321 324 325 325 324 323 322 322 321 321 323 325 329 331 332 332 333 334 334 331 331 331 332 332 332 333 333 332
205 204 202 206 208 217 225 230 240 250 257 262 271 289 298 296 294 294 294 296 298 301 306 310 313 313 311 310 308 307 308 310 314 318 322 324 325 325 324 324 324 323 323 323 325 327 329 331 332 332 333 336 338 337 334 332 333 335 335 335 336 336 335
208 208 206 208 212 220 228 236 246 255 259 261 269 285 294 292 291 292 292 295 298 303 309 312 312 310 307 306 306 309 311 315 319 321 324 325 326 326 326 325 325 325 325 326 328 331 332 333 333 333 335 338 340 342 339 335 335 337 337 338 340 339 337
207 210 210 212 217 224 232 241 251 257 259 262 270 282 287 287 288 290 291 295 300 307 310 309 308 306 306 308 311 314 316 318 321 324 326 327 327 327 327 327 327 327 328 330 332 334 334 334 335 336 338 340 342 345 347 344 341 341 340 339 341 342 340
205 211 212 216 222 229 238 247 254 257 259 264 271 278 281 283 287 288 291 297 303 306 306 305 305 305 309 313 315 317 318 321 325 326 327 327 327 329 329 329 329 330 333 335 336 336 336 337 338 340 342 343 344 346 350 351 348 345 346 343 341 344 344
206 212 214 218 224 231 240 248 252 256 260 265 270 274 277 281 284 287 294 299 300 301 302 304 306 308 312 314 315 317 320 324 327 327 327 328 330 331 331 331 333 336 338 338 337 338 340 341 342 343 345 346 347 348 350 354 352 348 347 348 346 345 345
210 215 214 216 223 231 240 246 251 256 260 265 268 272 277 280 284 290 294 294 295 298 302 305 308 310 311 312 314 318 322 325 327 327 329 331 333 333 333 335 338 340 339 339 340 342 343 345 345 346 346 346 349 350 350 352 354 352 348 349 349 347 346
213 215 213 217 224 231 239 245 252 257 260 263 267 273 278 282 286 288 287 288 293 300 303 305 306 307 307 309 314 319 323 326 327 330 332 334 334 334 336 340 341 341 340 341 343 344 346 348 348 347 346 347 349 350 350 350 352 354 351 349 350 348 347
213 214 215 221 224 228 237 245 252 256 258 262 269 276 282 284 283 281 281 288 296 298 300 301 301 303 304 308 316 321 324 327 329 332 334 335 335 337 340 342 341 341 342 343 345 347 348 349 348 348 347 348 348 348 349 349 350 352 353 352 351 349 349
212 215 219 222 222 226 236 244 250 254 257 264 271 279 282 278 274 276 282 290 294 295 296 296 297 299 303 311 318 322 325 328 330 333 334 335 337 339 341 341 341 342 343 344 346 348 350 349 348 348 348 348 348 348 348 349 349 350 352 354 352 350 350
214 218 221 220 221 228 238 246 252 256 260 268 275 278 276 271 271 277 285 288 289 289 290 292 295 297 303 312 318 322 326 328 331 333 334 337 339 340 340 341 342 343 343 345 347 348 349 348 348 348 348 347 348 349 350 349 350 350 352 355 354 352 351
218 221 221 221 224 234 244 251 257 261 265 270 273 273 271 268 272 278 281 283 283 285 287 289 292 295 301 309 317 322 326 328 331 332 334 338 340 340 340 341 343 344 344 346 348 348 348 348 347 347 347 347 348 350 351 350 351 352 353 355 355 353 351
220 222 221 223 230 241 250 254 259 263 267 269 269 270 268 268 273 275 277 278 278 281 284 285 287 290 297 308 316 321 325 328 331 332 335 339 339 339 339 341 343 344 345 347 348 347 346 346 347 347 346 347 349 350 351 352 353 354 354 354 354 353 352
221 222 223 227 236 246 250 253 259 263 266 267 266 265 265 267 270 271 272 273 275 278 278 279 281 285 295 307 314 320 324 328 330 332 336 338 338 338 338 341 344 344 346 348 348 345 344 346 347 346 347 349 350 351 353 355 356 355 355 355 355 354 353
221 222 225 231 240 245 246 251 259 263 265 264 262 261 262 265 267 269 269 270 271 272 271 272 275 282 295 305 311 318 323 326 330 332 334 336 336 336 338 341 344 344 347 349 347 344 345 347 347 347 349 351 352 353 355 357 358 357 356 356 356 356 355
222 223 227 234 241 242 244 251 258 262 263 260 257 258 259 263 265 265 265 265 266 266 265 266 270 282 293 301 309 317 322 325 328 330 331 333 334 336 338 342 343 345 348 347 345 345 347 347 348 349 351 353 354 355 357 358 359 359 358 357 357 358 357
223 225 229 235 238 240 244 252 257 262 262 256 254 256 259 262 262 260 260 260 260 261 260 261 268 280 289 297 307 315 319 324 325 326 329 330 333 337 339 342 345 347 347 346 346 347 348 349 349 350 352 355 357 358 359 360 -0 0 360 358 358 359 359
224 225 229 234 236 240 246 252 257 260 259 255 254 256 258 258 257 255 256 256 256 256 255 257 266 276 284 293 305 311 316 319 318 320 325 326 333 338 338 342 347 347 346 346 348 349 351 351 351 352 354 355 357 359 0 1 1 1 1 360 359 359 360
224 224 229 233 235 241 247 252 257 260 259 256 256 256 256 255 253 252 252 253 254 252 250 255 264 272 278 289 301 307 310 310 310 314 318 325 334 337 338 344 347 346 346 347 349 351 354 354 354 355 356 356 358 359 359 1 2 1 1 2 1 0 0
223 224 228 232 234 240 247 252 257 261 259 257 255 254 253 251 250 249 250 251 251 248 247 254 262 267 274 286 296 301 301 300 301 305 312 325 334 334 338 344 344 344 346 347 350 353 356 356 356 357 358 358 360 0 360 1 1 0 1 3 3 2 1
223 224 227 229 233 239 245 251 256 259 259 257 252 250 250 249 248 248 248 250 249 245 245 252 259 263 271 282 290 291 290 289 290 295 307 323 329 331 337 340 339 341 344 347 352 356 357 358 358 358 360 -0 1 2 2 2 1 0 1 3 4 3 1
223 223 225 226 231 238 244 249 254 258 258 255 250 248 248 247 246 246 247 248 246 243 245 252 256 260 268 277 282 280 277 275 277 283 297 315 320 324 331 333 333 337 342 347 353 357 358 358 358 359 360 0 -0 1 2 2 1 1 1 2 3 3 2
225 222 222 224 229 236 242 246 252 257 257 253 248 247 246 246 246 246 245 246 243 241 245 251 254 257 265 272 272 268 266 263 263 270 283 298 306 312 321 324 327 333 340 346 353 357 357 356 357 359 359 359 359 359 360 0 1 1 2 2 2 2 1
225 220 218 222 228 234 239 245 251 257 259 254 250 248 247 245 246 245 244 243 240 240 245 250 251 255 262 266 264 260 256 254 254 258 268 280 290 299 310 317 322 328 335 343 350 354 355 354 355 357 358 358 358 359 359 358 359 0 1 1 1 1 0
224 221 215 218 228 233 238 243 250 255 256 253 250 249 247 244 243 242 241 239 236 238 245 247 248 253 258 259 258 254 250 249 247 250 260 270 278 290 303 312 320 326 331 339 347 351 352 352 354 356 356 355 356 358 358 358 358 360 -0 359 358 358 357
234 227 219 220 226 232 237 241 245 248 249 249 247 246 245 243 241 240 238 235 233 237 242 244 245 250 254 254 253 250 247 245 243 244 256 265 271 285 298 309 318 325 329 335 343 348 349 350 351 354 353 352 354 355 356 357 358 359 360 358 356 355 354
241 225 221 225 227 231 236 236 234 237 242 245 245 244 244 242 240 239 236 232 233 236 240 241 243 247 250 249 248 247 244 243 242 244 254 263 270 281 293 305 316 323 327 333 341 346 347 348 349 351 352 352 354 355 355 356 356 357 358 356 354 352 351
251 226 221 228 231 233 235 231 227 231 237 241 241 240 242 242 239 238 234 230 232 236 238 238 240 243 245 243 243 243 241 241 241 244 252 261 269 279 290 302 312 320 325 331 339 345 346 346 347 350 351 351 354 356 356 355 355 355 355 353 352 350 349
263 238 226 231 240 246 243 233 226 225 230 235 237 237 239 240 239 237 234 231 232 235 236 236 237 239 239 238 237 238 238 238 240 245 253 261 269 279 288 298 307 317 325 330 338 344 345 344 345 348 350 351 353 355 355 354 354 353 352 351 350 349 348
265 253 243 246 254 261 252 237 229 226 225 229 233 233 235 238 238 236 233 231 232 234 234 235 236 236 235 233 232 233 234 236 239 245 252 259 270 281 287 293 303 314 323 328 335 342 343 342 343 346 348 350 351 353 353 353 352 351 350 349 349 349 348
261 261 258 257 259 263 255 239 231 227 224 227 232 232 233 235 236 234 231 230 232 234 233 233 233 233 232 230 228 229 231 234 239 245 251 258 269 280 285 290 300 312 319 324 331 339 342 341 341 344 347 348 349 350 351 351 350 349 348 349 349 349 349
257 258 256 257 260 264 261 248 237 228 222 226 231 232 233 234 234 232 230 229 231 232 232 232 232 231 229 227 225 226 228 233 240 247 253 259 268 277 282 288 298 307 314 319 326 337 341 339 339 342 345 347 347 348 349 350 349 348 348 348 349 350 350
Height
3162 3164 3165 3167 3168 3169 3170 3171 3172 3173 3173 3174 3174 3174 3175 3175 3175 3175 3175 3175 3175 3175 3175 3175 3174 3174 3174 3174 3173 3173 3173 3172 3172 3171 3170 3169 3168 3167 3166 3165 3164 3162 3161 3159 3158 3155 3153 3151 3148 3145 3143 3142 3141 3139 3137 3134 3132 3130 3127 3125 3122 3119 3117
3161 3163 3165 3166 3167 3167 3168 3169 3170 3171 3172 3173 3173 3173 3174 3174 3174 3174 3174 3174 3174 3174 3173 3173 3173 3172 3172 3172 3172 3171 3171 3170 3170 3169 3168 3167 3166 3165 3164 3163 3162 3161 3159 3157 3156 3154 3152 3150 3148 3146 3143 3140 3138 3137 3135 3132 3130 3127 3125 3123 3120 3117 3115
3160 3162 3164 3164 3166 3166 3167 3168 3169 3170 3171 3172 3172 3172 3173 3173 3173 3173 3173 3173 3172 3172 3172 3171 3171 3171 3171 3170 3170 3169 3169 3169 3168 3167 3166 3166 3165 3164 3163 3161 3160 3158 3157 3155 3154 3153 3151 3149 3148 3146 3143 3140 3137 3135 3133 3131 3128 3125 3123 3121 3118 3116 3113
3160 3161 3162 3163 3164 3165 3166 3167 3168 3169 3170 3170 3171 3171 3171 3172 3172 3172 3171 3171 3171 3170 3170 3170 3169 3169 3169 3168 3168 3168 3167 3167 3166 3166 3165 3164 3163 3162 3161 3159 3158 3157 3155 3154 3153 3152 3150 3148 3146 3144 3142 3140 3137 3134 3131 3129 3127 3124 3122 3120 3117 3114 3111
3159 3160 3161 3162 3163 3164 3165 3166 3167 3167 3168 3169 3169 3170 3170 3170 3170 3170 3170 3169 3169 3169 3168 3168 3168 3167 3167 3167 3167 3166 3166 3165 3165 3164 3163 3162 3161 3160 3159 3158 3157 3155 3154 3153 3151 3150 3148 3146 3144 3142 3140 3138 3136 3133 3130 3128 3126 3123 3121 3119 3116 3113 3110
3157 3159 3160 3161 3162 3162 3163 3164 3165 3166 3167 3167 3168 3168 3169 3168 3168 3168 3168 3168 3167 3167 3167 3167 3166 3166 3166 3166 3165 3165 3165 3164 3163 3163 3162 3161 3160 3159 3158 3157 3155 3154 3152 3151 3149 3148 3146 3144 3142 3141 3139 3137 3135 3132 3129 3127 3124 3122 3119 3117 3115 3112 3109
3156 3157 3158 3159 3160 3161 3162 3163 3164 3165 3165 3166 3166 3167 3167 3167 3167 3166 3166 3166 3166 3166 3165 3165 3165 3164 3164 3164 3164 3164 3163 3163 3162 3161 3160 3160 3159 3158 3156 3155 3154 3152 3151 3149 3147 3146 3144 3142 3141 3139 3138 3136 3134 3132 3128 3125 3123 3121 3118 3115 3112 3110 3107
3155 3156 3157 3158 3159 3160 3161 3161 3162 3163 3164 3164 3165 3165 3165 3165 3165 3165 3165 3164 3164 3164 3163 3163 3163 3163 3163 3163 3163 3162 3162 3161 3161 3160 3159 3158 3157 3156 3155 3153 3152 3150 3149 3147 3145 3144 3142 3140 3139 3137 3136 3135 3134 3132 3129 3125 3122 3119 3116 3114 3111 3108 3105
3153 3154 3156 3157 3158 3159 3160 3160 3161 3162 3162 3163 3163 3163 3163 3163 3163 3163 3163 3163 3162 3162 3161 3161 3161 3161 3161 3161 3161 3161 3160 3160 3159 3158 3158 3157 3156 3155 3153 3152 3150 3149 3147 3145 3143 3142 3140 3139 3137 3135 3134 3132 3131 3130 3128 3124 3121 3118 3115 3112 3110 3107 3104
3152 3153 3154 3156 3157 3158 3158 3159 3159 3160 3160 3161 3161 3162 3162 3161 3161 3161 3161 3161 3160 3160 3160 3160 3160 3160 3160 3160 3160 3159 3159 3158 3158 3157 3156 3155 3154 3153 3151 3150 3149 3147 3145 3143 3141 3140 3138 3137 3135 3133 3131 3129 3127 3125 3124 3122 3119 3116 3114 3110 3106 3104 3102
3151 3152 3153 3155 3156 3156 3157 3157 3158 3158 3159 3159 3159 3160 3160 3160 3160 3160 3159 3159 3159 3159 3158 3158 3158 3158 3158 3158 3158 3158 3157 3157 3156 3155 3155 3154 3152 3151 3150 3148 3146 3145 3143 3141 3140 3138 3137 3135 3133 3131 3129 3127 3125 3122 3121 3119 3116 3112 3110 3108 3104 3100 3098
3150 3151 3152 3153 3154 3155 3155 3155 3156 3156 3157 3157 3157 3158 3158 3158 3158 3158 3157 3157 3157 3157 3157 3157 3157 3157 3157 3157 3157 3156 3156 3155 3155 3154 3153 3151 3150 3149 3147 3146 3144 3143 3141 3140 3138 3137 3135 3133 3131 3128 3126 3124 3122 3120 3118 3116 3114 3111 3107 3105 3102 3098 3094
3149 3150 3151 3152 3152 3153 3153 3154 3154 3154 3155 3155 3156 3156 3156 3156 3156 3156 3156 3156 3156 3155 3155 3155 3155 3156 3156 3155 3155 3155 3154 3154 3153 3152 3151 3149 3148 3147 3145 3144 3142 3141 3140 3138 3137 3135 3133 3131 3129 3126 3124 3122 3120 3118 3116 3114 3112 3110 3106 3103 3100 3096 3092
3147 3148 3149 3150 3151 3151 3151 3152 3152 3153 3153 3153 3154 3154 3154 3154 3154 3154 3154 3154 3154 3154 3154 3154 3154 3154 3154 3154 3154 3153 3153 3152 3151 3150 3149 3147 3146 3145 3143 3142 3141 3140 3138 3137 3135 3133 3131 3129 3127 3125 3123 3120 3118 3116 3114 3112 3110 3108 3105 3102 3098 3094 3090
3146 3147 3147 3148 3149 3149 3150 3150 3150 3151 3151 3152 3152 3153 3153 3153 3153 3153 3152 3152 3152 3152 3152 3153 3153 3153 3153 3153 3153 3152 3151 3150 3149 3148 3147 3146 3145 3143 3142 3141 3140 3138 3137 3135 3134 3132 3130 3128 3126 3124 3122 3120 3118 3115 3113 3110 3108 3105 3103 3100 3096 3092 3088
3144 3145 3146 3147 3147 3148 3148 3148 3148 3149 3149 3150 3151 3151 3151 3151 3151 3150 3150 3150 3151 3151 3151 3151 3151 3151 3151 3151 3151 3150 3150 3148 3148 3147 3146 3145 3144 3142 3141 3140 3139 3137 3136 3134 3132 3131 3129 3128 3126 3124 3121 3119 3117 3115 3112 3109 3106 3103 3100 3097 3094 3089 3086
3142 3143 3144 3144 3145 3146 3146 3146 3147 3147 3148 3148 3149 3149 3149 3149 3149 3148 3149 3149 3149 3149 3150 3150 3150 3150 3150 3150 3149 3149 3148 3147 3146 3145 3144 3144 3142 3141 3140 3139 3138 3136 3134 3133 3131 3130 3128 3127 3125 3123 3121 3119 3117 3114 3112 3109 3105 3102 3098 3095 3092 3088 3084
3140 3141 3142 3142 3143 3144 3144 3144 3145 3145 3146 3146 3147 3147 3147 3147 3147 3147 3147 3147 3148 3148 3148 3148 3148 3148 3148 3148 3148 3147 3146 3146 3145 3144 3143 3142 3141 3140 3139 3138 3137 3135 3134 3132 3130 3129 3127 3126 3124 3122 3120 3118 3116 3113 3111 3108 3104 3101 3097 3094 3090 3087 3082
3138 3139 3140 3140 3141 3142 3142 3142 3143 3143 3144 3144 3145 3145 3145 3145 3145 3145 3145 3145 3146 3146 3147 3147 3147 3147 3147 3147 3146 3146 3145 3144 3144 3143 3142 3141 3140 3139 3138 3137 3136 3134 3133 3131 3129 3128 3126 3125 3123 3121 3119 3117 3115 3112 3110 3107 3103 3100 3096 3093 3089 3085 3080
3135 3137 3138 3138 3139 3140 3140 3140 3141 3141 3142 3142 3143 3143 3143 3142 3142 3143 3143 3144 3144 3145 3145 3145 3145 3145 3145 3145 3144 3144 3143 3143 3142 3142 3141 3140 3139 3138 3137 3136 3135 3133 3132 3130 3129 3127 3125 3123 3122 3120 3118 3116 3113 3111 3108 3105 3102 3098 3094 3090 3087 3082 3078
3133 3134 3135 3136 3137 3137 3138 3138 3138 3139 3139 3140 3141 3141 3140 3140 3140 3141 3141 3142 3143 3143 3144 3144 3143 3143 3143 3143 3143 3142 3142 3141 3141 3140 3140 3139 3138 3137 3136 3135 3133 3132 3130 3129 3128 3126 3124 3122 3121 3119 3117 3115 3112 3109 3106 3103 3099 3096 3092 3088 3084 3081 3076
3131 3132 3133 3134 3134 3135 3135 3136 3136 3137 3137 3138 3138 3138 3138 3138 3139 3139 3140 3140 3141 3142 3142 3142 3142 3141 3141 3141 3141 3141 3140 3140 3140 3139 3139 3138 3137 3136 3135 3134 3132 3131 3129 3128 3126 3124 3123 3121 3119 3117 3115 3113 3110 3107 3104 3101 3097 3094 3090 3086 3082 3078 3074
3129 3130 3130 3131 3132 3132 3133 3133 3134 3134 3135 3135 3136 3136 3136 3136 3137 3137 3138 3139 3139 3140 3140 3140 3140 3140 3140 3140 3139 3139 3139 3139 3139 3138 3138 3137 3136 3135 3134 3133 3131 3130 3128 3127 3125 3123 3121 3119 3117 3115 3113 3110 3108 3105 3102 3099 3096 3092 3089 3085 3080 3076 3071
3126 3127 3128 3128 3129 3130 3130 3131 3131 3132 3132 3133 3133 3133 3134 3134 3135 3136 3136 3137 3137 3138 3138 3138 3138 3138 3138 3138 3138 3137 3137 3137 3137 3137 3137 3136 3135 3134 3133 3132 3131 3129 3128 3126 3124 3122 3120 3118 3116 3114 3112 3109 3106 3103 3100 3097 3094 3091 3088 3084 3079 3074 3070
3123 3124 3124 3125 3126 3127 3128 3128 3129 3129 3130 3130 3131 3131 3132 3132 3133 3134 3134 3135 3135 3136 3136 3136 3136 3136 3136 3136 3136 3136 3136 3136 3136 3136 3135 3134 3134 3133 3132 3131 3130 3128 3127 3125 3123 3121 3120 3118 3116 3113 3111 3108 3105 3102 3099 3096 3093 3089 3086 3083 3079 3074 3069
3119 3120 3121 3122 3123 3124 3125 3126 3126 3127 3127 3128 3128 3129 3130 3130 3131 3132 3132 3133 3133 3134 3134 3134 3134 3135 3135 3134 3134 3135 3135 3135 3135 3135 3134 3133 3132 3132 3131 3130 3129 3128 3126 3125 3123 3121 3119 3117 3115 3113 3111 3108 3106 3103 3100 3096 3093 3089 3086 3083 3079 3074 3069
3116 3117 3117 3118 3120 3121 3122 3123 3123 3124 3125 3125 3126 3127 3127 3128 3129 3129 3130 3130 3131 3131 3132 3132 3133 3133 3133 3133 3133 3133 3134 3134 3134 3133 3133 3132 3131 3131 3130 3129 3128 3127 3126 3124 3122 3120 3119 3117 3115 3113 3110 3108 3105 3103 3100 3097 3094 3090 3087 3083 3079 3075 3070
3112 3112 3113 3115 3116 3118 3119 3120 3120 3121 3122 3123 3124 3124 3125 3126 3126 3127 3128 3128 3129 3129 3130 3131 3131 3131 3131 3131 3131 3132 3132 3132 3132 3132 3131 3131 3130 3130 3129 3128 3127 3126 3125 3123 3122 3120 3118 3117 3115 3112 3110 3107 3105 3102 3099 3096 3093 3090 3086 3082 3079 3075 3071
3106 3106 3108 3111 3113 3114 3116 3117 3118 3118 3119 3120 3121 3122 3123 3123 3124 3125 3125 3126 3126 3127 3128 3129 3129 3129 3129 3129 3130 3130 3131 3131 3130 3130 3129 3129 3129 3128 3128 3127 3126 3125 3124 3122 3121 3119 3118 3116 3114 3112 3109 3107 3105 3102 3099 3095 3092 3089 3086 3082 3079 3076 3072
3103 3103 3105 3108 3110 3111 3113 3114 3115 3115 3116 3117 3118 3119 3120 3121 3121 3122 3123 3124 3124 3125 3126 3127 3127 3127 3127 3127 3128 3129 3129 3129 3129 3128 3128 3128 3127 3127 3127 3126 3125 3124 3123 3121 3120 3118 3117 3115 3113 3111 3109 3107 3105 3102 3099 3096 3093 3090 3086 3083 3080 3077 3074
3103 3104 3104 3106 3107 3108 3109 3110 3111 3112 3113 3114 3115 3116 3117 3118 3119 3120 3121 3121 3122 3123 3124 3124 3125 3125 3125 3126 3126 3127 3127 3127 3127 3127 3126 3126 3126 3126 3125 3124 3123 3122 3121 3120 3118 3117 3115 3114 3112 3110 3108 3106 3103 3101 3098 3096 3093 3090 3087 3084 3081 3078 3075
3100 3102 3102 3103 3104 3105 3106 3107 3107 3108 3110 3111 3112 3113 3114 3115 3116 3117 3118 3119 3120 3120 3121 3122 3123 3123 3123 3124 3124 3125 3125 3125 3125 3125 3125 3125 3124 3124 3124 3123 3122 3121 3120 3119 3117 3115 3114 3113 3111 3109 3107 3105 3102 3099 3096 3093 3090 3087 3084 3082 3079 3077 3074
3096 3098 3098 3099 3101 3101 3102 3103 3103 3105 3106 3107 3109 3110 3112 3113 3114 3114 3115 3116 3117 3118 3119 3120 3120 3121 3121 3122 3122 3123 3123 3123 3123 3123 3123 3123 3123 3123 3122 3122 3120 3119 3118 3117 3115 3114 3112 3111 3109 3107 3105 3103 3100 3097 3094 3091 3088 3085 3082 3080 3077 3075 3072
3093 3095 3096 3096 3097 3098 3099 3099 3100 3101 3102 3104 3106 3107 3109 3110 3111 3112 3113 3114 3115 3116 3117 3117 3118 3118 3119 3119 3120 3120 3121 3121 3122 3122 3122 3121 3121 3121 3121 3120 3119 3118 3117 3116 3114 3112 3111 3110 3108 3105 3103 3101 3098 3095 3093 3090 3087 3084 3081 3079 3076 3073 3070
3090 3091 3093 3094 3095 3096 3096 3096 3097 3097 3099 3101 3103 3104 3105 3107 3108 3109 3110 3111 3112 3113 3114 3115 3115 3116 3117 3117 3117 3118 3119 3119 3120 3120 3120 3120 3119 3119 3119 3118 3118 3117 3116 3114 3113 3111 3109 3108 3106 3104 3102 3099 3097 3094 3091 3089 3086 3083 3081 3078 3075 3072 3069
3087 3088 3089 3090 3092 3092 3093 3094 3094 3094 3096 3098 3100 3100 3102 3103 3104 3106 3107 3109 3110 3111 3111 3112 3113 3113 3114 3114 3115 3116 3117 3117 3118 3118 3118 3118 3118 3117 3117 3117 3116 3115 3114 3113 3111 3109 3107 3106 3105 3102 3100 3098 3095 3093 3090 3088 3086 3083 3080 3078 3075 3071 3068
3084 3085 3085 3086 3087 3089 3090 3091 3091 3091 3093 3095 3096 3097 3098 3100 3101 3103 3105 3106 3107 3108 3109 3110 3110 3111 3111 3112 3112 3113 3114 3115 3116 3116 3116 3116 3116 3116 3116 3115 3114 3113 3112 3111 3110 3108 3106 3105 3103 3101 3099 3096 3094 3092 3089 3087 3085 3082 3080 3077 3074 3070 3067